Address 0x9297311829b7059cc66ed083da39a739a9fd0489

 
Txn Hash
Block
From
To
Value [Txn Fee]
0xa4fa9ba972eb3c1acac05d48c6bc9a363d0d158b9d2bceb53e0950a2f6bff67225891842020-11-27 2:00:293 hrs 26 mins ago0x9297311829b7059cc66ed083da39a739a9fd0489OUT 0x47bead2563dcbf3bf2c9407fea4dc236faba485a0 BNB0.00050444
0xab5ca8cb5d196d7809ad12b9cbaa2ec420540f15d35db75aee8d90a07ff12bc525890142020-11-27 1:51:593 hrs 34 mins ago0x9297311829b7059cc66ed083da39a739a9fd0489OUT Binance: BTCB Token0 BNB0.0004223
0xcbae7ad27d55c2c050fe3d5beff9e3c028e7ad5bc9ad68d1febac82f0422b2d625879832020-11-27 1:00:264 hrs 26 mins ago0x9297311829b7059cc66ed083da39a739a9fd0489OUT Hard Protocol: HARD Token0 BNB0.00042564
0x5593b48dd4fcb5326f99aa3fdbee9663710c10d525ad6a8122774194b976bae325873852020-11-27 0:30:324 hrs 56 mins ago0x9297311829b7059cc66ed083da39a739a9fd0489OUTBinance: Hot Wallet106.53328845767593 BNB0.00042
0x3633169103399c2e543379f0f3baacec30044bc880de33aadc0dfe8a6b1c46cd25857352020-11-26 23:07:276 hrs 19 mins ago0xafda82acdfb040c90b4a601716557cdfb4522794 IN 0x9297311829b7059cc66ed083da39a739a9fd048928.57918889046404 BNB0.00042
0x437ae7055cf438dbd38fdbdaabde51ecc791aebc48e18e5c3d889813329183c025842062020-11-26 21:51:007 hrs 35 mins ago0xafda82acdfb040c90b4a601716557cdfb4522794 IN 0x9297311829b7059cc66ed083da39a739a9fd048977.95494520721189 BNB0.00042
0x94b42112a30f55dda58d0665031ddfcca1c78eb604fa910b6ae0d8dd5d20e35325813942020-11-26 19:30:249 hrs 56 mins ago0x9297311829b7059cc66ed083da39a739a9fd0489OUT Hard Protocol: HARD Token0 BNB0.00042564
0x52ed7e0df97758f4fbdab2886ae36ba190a2a23b105dfa30ee312eabd043aec725796042020-11-26 18:00:5411 hrs 25 mins ago0x9297311829b7059cc66ed083da39a739a9fd0489OUTBinance: Hot Wallet79.549454274970715 BNB0.00042
0x7988fe44cadae0641cf26883ab3c62bd01f3b63d55c09635f1dc03f5d7a0c1a325792182020-11-26 17:41:3611 hrs 44 mins ago0xafda82acdfb040c90b4a601716557cdfb4522794 IN 0x9297311829b7059cc66ed083da39a739a9fd048949.55813008059594 BNB0.00042
0x6b7676bbd216af530eee8be5dfe85e7e21dd902620a983bb99b31aaca10e90c425790242020-11-26 17:31:5411 hrs 54 mins ago0xafda82acdfb040c90b4a601716557cdfb4522794 IN 0x9297311829b7059cc66ed083da39a739a9fd048929.991744194374775 BNB0.00042
0xc253aed76ad62e9d990d58f36bf8b0f96f7d567b37a87c28ea3247565e06886325790042020-11-26 17:30:5411 hrs 55 mins ago0x9297311829b7059cc66ed083da39a739a9fd0489OUTBinance: Hot Wallet46.96454088027367 BNB0.00042
0x630f8c87b5d31e9e6a0e7b20708756c1334664cba1fdb5719769adf298ab9d5f25788582020-11-26 17:23:3612 hrs 2 mins ago0xafda82acdfb040c90b4a601716557cdfb4522794 IN 0x9297311829b7059cc66ed083da39a739a9fd048946.96496088027367 BNB0.00042
0xede16ddfc2d28175e928a07b97c592bde16295fc0ac7dfb14fe48941d2dac5a825766102020-11-26 15:31:0313 hrs 55 mins ago0x9297311829b7059cc66ed083da39a739a9fd0489OUTBinance: Hot Wallet87.392288048304475 BNB0.00042
0xe0836207bd882c9f05c1ac04d10d1f0bc9b9354e09a589639b73d56903ea255325753982020-11-26 14:30:2714 hrs 56 mins ago0x9297311829b7059cc66ed083da39a739a9fd0489OUT 0x47bead2563dcbf3bf2c9407fea4dc236faba485a0 BNB0.00050444
0x9afef696df4a4e01c4c075a859acbf4b6ea7dba32161ef52dbb05817ae1fab8f25752082020-11-26 14:20:5715 hrs 5 mins ago0xafda82acdfb040c90b4a601716557cdfb4522794 IN 0x9297311829b7059cc66ed083da39a739a9fd048953.462595310693295 BNB0.00042
0x2efc3e0b04312fb9829e130882091be0a219fc3a798fa6e4e779a9de9838b4f825748792020-11-26 14:04:3015 hrs 22 mins ago0xafda82acdfb040c90b4a601716557cdfb4522794 IN 0x9297311829b7059cc66ed083da39a739a9fd048933.93162605761118 BNB0.00042
0x4626b9b24fc6cc3b2da119efa359eafa89e60e6ebb2fe6849ae144dc15fc57a225717982020-11-26 11:30:2717 hrs 56 mins ago0x9297311829b7059cc66ed083da39a739a9fd0489OUT 0x47bead2563dcbf3bf2c9407fea4dc236faba485a0 BNB0.00050444
0xc0f43dfce7513b81338bed4b912d24ff64b6472633adf5f2fac02e9c4eb338e625711982020-11-26 11:00:2718 hrs 26 mins ago0x9297311829b7059cc66ed083da39a739a9fd0489OUT 0x47bead2563dcbf3bf2c9407fea4dc236faba485a0 BNB0.00050444
0x54b6c0653966d0e9ea8e284398a2d8103b5f828e506c5453ab8b595771685dd725688182020-11-26 9:01:1420 hrs 25 mins ago0x9297311829b7059cc66ed083da39a739a9fd0489OUTBinance: Hot Wallet56.575657457226318 BNB0.00042
0xf881f0d3397b1e560e172a20f4d5754b5ffc29be4b3a55b244674b4be11d31b325688062020-11-26 9:00:3820 hrs 25 mins ago0x9297311829b7059cc66ed083da39a739a9fd0489OUT 0x47bead2563dcbf3bf2c9407fea4dc236faba485a0 BNB0.00050444
0xb2f14b870113b879792d252ed8e4859cf9f7e9a07f3becb03d1d2db6e9d5bf8125688022020-11-26 9:00:2620 hrs 26 mins ago0x9297311829b7059cc66ed083da39a739a9fd0489OUT Hard Protocol: HARD Token0 BNB0.00042564
0x18b6252f1b06417132c485465dfa5ccb91c3ae46306747bf2c2eb1e84ecdbfc125682492020-11-26 8:32:4720 hrs 53 mins ago0xafda82acdfb040c90b4a601716557cdfb4522794 IN 0x9297311829b7059cc66ed083da39a739a9fd048926.61067001176044 BNB0.00042
0x975cf314e30fdb705bb394a79614b0a3545bb77eabe1701057239cfc2520ed6e25682332020-11-26 8:31:5920 hrs 54 mins ago0xafda82acdfb040c90b4a601716557cdfb4522794 IN 0x9297311829b7059cc66ed083da39a739a9fd048929.966337525465878 BNB0.00042
0x47fb86246a470baf8feff9419f3ce904324adcf1275f23fc215c3aa218ddbd4325658312020-11-26 6:31:1322 hrs 55 mins ago0x9297311829b7059cc66ed083da39a739a9fd0489OUTBinance: Hot Wallet288.914222560986517 BNB0.00042
0x604e03e21869d5f7d4f5799505a195ec72d2b7833c0d92e5a9509311df6a785b25630512020-11-26 4:12:031 day 1 hr ago0xafda82acdfb040c90b4a601716557cdfb4522794 IN 0x9297311829b7059cc66ed083da39a739a9fd048943.87150067356606 BNB0.00042
[ Download CSV Export 
Parent Txn Hash Block From To Value
Loading

Contract Name:
0 BNB

Compiler Version
0

Optimization Enabled:
0 BNB

Other Settings:
-NA-
Block Transaction Gas Used Reward
Age Block Fee Address BC Fee Address Voting Power Jailed Incoming
Block Uncle Number Difficulty Gas Used Reward
Loading
Loading
Make sure to use the "Vote Down" button for any spammy posts, and the "Vote Up" for interesting conversations.